Regional Weather Roundup
Issued by NWS

Home | Current Version | Previous Version | Graphics & Text | Print | Product List | Glossary Off
Versions: 1 2 3 4 5 6 7 8 9 10 11 12 13 14 15 16 17 18 19 20 21 22 23 24 25 26 27

000
ASUS43 KDMX 241507
RWRIA

WEATHER ROUNDUP FOR IOWA
NATIONAL WEATHER SERVICE DES MOINES IA
1000 AM CDT THU APR 24 2014

NOTE: "FAIR" INDICATES FEW OR NO CLOUDS BELOW 12,000 FEET WITH NO
SIGNIFICANT WEATHER AND/OR OBSTRUCTIONS TO VISIBILITY.

* - THESE STATIONS ARE NOT NWS STATIONS...THUS NOT UNDER NWS
QUALITY CONTROL.  THEY ALSO DO NOT REPORT WEATHER SUCH
AS PRECIPITATION OR FOG.

IAZ001>003-012>014-020>022-031>034-043>046-241600-
   NORTHWEST IOWA

CITY           SKY/WX    TMP DP  RH WIND       PRES   REMARKS
CARROLL *      CLOUDY    48  46  93 NW8       29.63F
CHEROKEE *     CLOUDY    48  45  87 N7        29.67R
DENISON *      CLOUDY    48  48 100 W7        29.66R
LE MARS *        N/A     48  46  93 N8        29.69S
ORANGE CITY *  DRIZZLE   46  43  87 NW7       29.69S
SHELDON *      CLOUDY    45  43  93 NW5       29.67F FOG
SIOUX CITY     CLOUDY    50  47  89 NW7       29.69R
SPENCER        CLOUDY    45  42  89 CALM      29.66F
STORM LAKE *   CLOUDY    46  45  93 NW5       29.65S
$$

IAZ055>058-069>071-079>083-090>094-241600-
   SOUTHWEST IOWA

CITY           SKY/WX    TMP DP  RH WIND       PRES   REMARKS
ATLANTIC *     SUNNY     52  50  93 W6        29.65R
AUDUBON *      SUNNY     52  46  82 NW6       29.65R
CLARINDA *     MOSUNNY   55  54  94 W7        29.70R
COUNCIL BLFS * CLOUDY    52  52 100 W9        29.68R FOG
CRESTON *      CLOUDY    54  54 100 VRB7G13   29.66R
HARLAN  *      PTSUNNY   50  48  93 W15       29.69R
LAMONI         LGT RAIN  56  54  93 SE14G20   29.63F
RED OAK *      SUNNY     54  52  94 W10       29.67R
SHENANDOAH *   PTSUNNY   54  52  94 W7        29.70R FOG
$$

IAZ047>049-059>061-072>074-084-241600-
   CENTRAL IOWA

CITY           SKY/WX    TMP DP  RH WIND       PRES   REMARKS
AMES           LGT RAIN  49  45  86 S5        29.65F FOG
ANKENY *       LGT RAIN  50  48  93 SE15G23   29.60F
CHARITON *     LGT RAIN  50  48  93 S7        29.70F
DES MOINES     LGT RAIN  52  50  93 S21       29.62F FOG
GRINNELL*      HVY RAIN  46  43  87 S10       29.73R
KNOXVILLE *    LGT RAIN  50  46  87 S8        29.70R
MARSHALLTOWN   RAIN      46  44  93 S14       29.69R FOG
NEWTON *       CLOUDY    46  46 100 S10       29.71R FOG
PELLA *        LGT RAIN  48  45  87 SW7       29.74R
PERRY *        CLOUDY    54  48  82 S6        29.65R
$$

IAZ004>006-015-016-023>025-035-036-241600-
   NORTH CENTRAL IOWA

CITY           SKY/WX    TMP DP  RH WIND       PRES   REMARKS
ALGONA *       CLOUDY    45  41  87 SE7G13    29.65F
CLARION *      PTSUNNY   46  43  87 SE13G20   29.63F
ESTHERVILLE    LGT RAIN  43  43 100 SE5       29.65F FOG
FORT DODGE *   CLOUDY    48  43  81 S6        29.65S
MASON CITY     CLOUDY    43  40  89 SE18      29.68F
FOREST CITY *  LGT RAIN  43  41  93 E13G18    29.64F
IOWA FALLS *   CLOUDY    46  43  87 SE12      29.66F
$$

IAZ007>011-017>019-026>030-037>042-050>054-066-241600-
   NORTHEAST IOWA

CITY           SKY/WX    TMP DP  RH WIND       PRES   REMARKS
CEDAR RAPIDS   LGT RAIN  52  39  61 S17G23    29.71F
CHARLES CITY * CLOUDY    43  39  87 SE16      29.71F
CLINTON *      CLOUDY    54  37  54 SE30G37   29.81F
DECORAH *      LGT RAIN  41  41 100 SE14G23   29.74F
DUBUQUE        CLOUDY    49  37  63 SE21G33   29.77F
MONTICELLO *   SUNNY     54  41  62 SE20G30   29.74F
OELWEIN *      CLOUDY   N/A N/A N/A SE20      29.72S
WATERLOO       RAIN      46  42  86 SE9       29.71R FOG
$$

IAZ064-065-067-068-078-241600-
   EAST CENTRAL IOWA

CITY           SKY/WX    TMP DP  RH WIND       PRES   REMARKS
DAVENPORT      LGT RAIN  54  40  59 SE26G36   29.79F
IOWA CITY      CLOUDY    56  40  55 SE16G24   29.74F
MT. PLEASANT * CLOUDY    59  34  38 S23G32    29.74F
MUSCATINE *    CLOUDY    57  37  47 SE17G26   29.75F
QUAD CITIES    PTSUNNY   58  38  47 SE21G28   29.77F
$$

IAZ062-063-075>077-085>089-095>099-241600-
   SOUTHEAST IOWA

CITY           SKY/WX    TMP DP  RH WIND       PRES   REMARKS
BURLINGTON     PTSUNNY   60  37  42 S16G24    29.76F
FAIRFIELD *    MOSUNNY   57  36  44 S20G28    29.71F
FORT MADISON * PTSUNNY   61  37  41 S20G26    29.77F
KEOKUK *       PTSUNNY   61  37  41 S12G24    29.74F
OSKALOOSA *    PTSUNNY   50  43  76 S12       29.69S
CENTERVILLE *  MOSUNNY   55  43  62 S10       29.72R
OTTUMWA        CLOUDY    52  40  63 S15       29.69F
WASHINGTON *   MOSUNNY   59  37  44 S20G31    29.72F
$$

ABBREVIATIONS USED IN REMARKS
   TC - TEMPERATURES IN CELSIUS
  WCI - WIND CHILL INDEX
   HX - HEAT INDEX
  VSB - VISIBILITY
$$




USA.gov is the U.S. government's official web portal to all federal, state and local government web resources and services.